Location: Caltech
(34.1382°N, 118.1253°W)
Time: 17:19:59
(UTC-08:00)

Tiros 1 despin weight - All Passes

Search period start: 21 December 2014 00:00
Search period end: 31 December 2014 00:00
Orbit: 600 x 649 km, 48.2° (Epoch: 20 December)

Date Brightness Start Highest point End Pass type
(mag) Time Alt. Az. Time Alt. Az. Time Alt. Az.
21 Dec - 07:09:50 10° SSE 07:12:31 16° SE 07:15:12 10° E daylight
21 Dec - 08:49:21 10° WSW 08:53:46 74° NW 08:58:13 10° NE daylight
21 Dec - 10:32:48 10° WNW 10:36:03 20° NNW 10:39:18 10° NNE daylight
21 Dec - 12:17:00 10° NNW 12:19:07 13° N 12:21:15 10° NNE daylight
21 Dec - 13:58:30 10° NNW 14:02:06 23° NNE 14:05:44 10° ENE daylight
21 Dec - 15:39:41 10° NW 15:44:11 81° SW 15:48:45 10° SE daylight
21 Dec - 17:24:00 10° WSW 17:25:20 11° SW 17:26:40 10° SW visible
22 Dec - 07:26:56 10° SSW 07:30:59 35° SE 07:35:02 10° ENE daylight
22 Dec - 09:08:30 10° W 09:12:38 38° NNW 09:16:47 10° NE daylight
22 Dec - 10:52:46 10° NW 10:55:18 15° N 10:57:51 10° NNE daylight
22 Dec - 12:35:55 10° NNW 12:38:28 15° N 12:41:02 10° NE daylight
22 Dec - 14:16:58 10° NW 14:21:08 38° NNE 14:25:21 10° E daylight
22 Dec - 15:58:41 10° WNW 16:02:49 36° SW 16:07:00 10° SSE daylight
23 Dec - 06:07:37 10° SE 06:08:30 11° SE 06:09:22 10° ESE visible
23 Dec - 07:45:09 10° SW 07:49:36 80° SE 07:54:03 10° NE daylight
23 Dec - 09:28:07 10° WNW 09:31:41 23° NNW 09:35:15 10° NNE daylight
23 Dec - 11:12:33 10° NNW 11:14:39 13° N 11:16:45 10° NNE daylight
23 Dec - 12:54:28 10° NNW 12:57:44 20° NNE 13:01:01 10° ENE daylight
23 Dec - 14:35:31 10° NW 14:40:00 73° NE 14:44:31 10° ESE daylight
23 Dec - 16:18:27 10° W 16:21:18 17° SW 16:24:09 10° S daylight
24 Dec - 06:23:15 10° S 06:26:54 25° SE 06:30:32 10° ENE visible
24 Dec - 08:04:03 10° WSW 08:08:22 50° NNW 08:12:42 10° NE daylight
24 Dec - 09:48:01 10° NW 09:50:52 16° NNW 09:53:43 10° NNE daylight
24 Dec - 11:31:44 10° NNW 11:34:01 14° N 11:36:18 10° NE daylight
24 Dec - 13:12:54 10° NW 13:16:50 30° NNE 13:20:47 10° E daylight
24 Dec - 14:54:20 10° WNW 14:58:41 52° SW 15:03:05 10° SSE daylight
25 Dec - 06:41:04 10° SW 06:45:26 56° SE 06:49:47 10° ENE daylight
25 Dec - 08:23:27 10° W 08:27:19 28° NNW 08:31:10 10° NE daylight
25 Dec - 10:07:56 10° NW 10:10:10 14° N 10:12:24 10° NNE daylight
25 Dec - 11:50:23 10° NNW 11:53:18 17° NNE 11:56:14 10° ENE daylight
25 Dec - 13:31:23 10° NW 13:35:45 53° NNE 13:40:09 10° ESE daylight
25 Dec - 15:13:38 10° W 15:17:12 24° SW 15:20:49 10° S daylight
26 Dec - 05:19:52 10° S 05:22:49 17° SE 05:25:45 10° E visible
26 Dec - 06:59:40 10° WSW 07:04:07 68° NW 07:08:33 10° NE daylight
26 Dec - 08:43:15 10° WNW 08:46:25 19° NNW 08:49:36 10° NNE daylight
26 Dec - 10:27:24 10° NNW 10:29:31 13° N 10:31:37 10° NNE daylight
26 Dec - 12:08:49 10° NNW 12:12:28 24° NNE 12:16:07 10° ENE daylight
26 Dec - 13:50:03 10° NW 13:54:30 75° SW 13:58:59 10° SE daylight
27 Dec - 05:37:06 10° SSW 05:41:16 39° SE 05:45:25 10° ENE visible
27 Dec - 07:18:51 10° W 07:22:58 36° NNW 07:27:04 10° NE daylight
27 Dec - 09:03:11 10° NW 09:05:40 14° N 09:08:08 10° NNE daylight
27 Dec - 10:46:14 10° NNW 10:48:49 15° NNE 10:51:25 10° NE daylight
27 Dec - 12:27:15 10° NW 12:31:27 40° NNE 12:35:40 10° E daylight
27 Dec - 14:09:03 10° WNW 14:13:05 33° SW 14:17:07 10° SSE daylight
28 Dec - 04:17:06 10° SSE 04:18:43 12° SE 04:20:20 10° ESE visible
28 Dec - 05:55:23 10° SW 05:59:52 86° SE 06:04:20 10° NE visible
28 Dec - 07:38:28 10° WNW 07:41:59 22° NNW 07:45:30 10° NNE daylight
28 Dec - 09:22:54 10° NNW 09:24:59 13° N 09:27:03 10° NNE daylight
28 Dec - 11:04:43 10° NNW 11:08:02 20° NNE 11:11:21 10° ENE daylight
28 Dec - 12:45:48 10° NW 12:50:16 78° NE 12:54:44 10° SE daylight
28 Dec - 14:28:58 10° W 14:31:30 15° SW 14:34:03 10° SSW daylight
29 Dec - 04:33:18 10° S 04:37:07 27° SE 04:40:53 10° ENE visible
29 Dec - 06:14:18 10° WSW 06:18:38 47° NNW 06:22:56 10° NE visible
29 Dec - 07:58:22 10° NW 08:01:09 16° NNW 08:03:56 10° NNE daylight
29 Dec - 09:41:59 10° NNW 09:44:18 14° N 09:46:37 10° NE daylight
29 Dec - 11:23:08 10° NW 11:27:05 31° NNE 11:31:03 10° E daylight
29 Dec - 13:04:37 10° WNW 13:08:54 48° SW 13:13:12 10° SSE daylight
30 Dec - 04:51:11 10° SW 04:55:38 61° SE 05:00:02 10° ENE visible
30 Dec - 06:33:43 10° W 06:37:33 27° NNW 06:41:22 10° NNE daylight
30 Dec - 08:18:14 10° NW 08:20:26 13° N 08:22:37 10° NNE daylight
30 Dec - 10:00:34 10° NNW 10:03:33 17° NNE 10:06:31 10° ENE daylight
30 Dec - 11:41:35 10° NW 11:45:58 56° NE 11:50:21 10° ESE daylight
30 Dec - 13:23:58 10° W 13:27:22 22° SW 13:30:47 10° S daylight
